THOR ABLESTAR DEB, 48824

Orbit data source: Space-Track

THOR ABLESTAR DEB, 48824 is space debris in LEO originally from a launch on Thu, 29 Jun 1961 UTC launched from the Air Force Eastern Test Range (AFETR). Debris objects in space refer to the collection of defunct objects orbiting the Earth. Examples of debris include non-operational satellites, rocket bodies, and fragments generated from explosions, collisions, or faulty payload assembly.

Loading next visibility...
Identifier
48824, 1961-015NC
Orbit
LEO
Country
Flag of USUS
Related business
Manufacturer
Unknown
Mission
Spacecraft
Bus & Motor
Unknown
Mass
Unknown
Launch date (UTC)
1961-06-29 (65 years ago)
Launch vehicle
Unknown
Launch site
Air Force Eastern Test Range (AFETR)
Object type
Payload
Rocket body
Debris
Shape & HBR
Unknown shape, 0.1 m
Radar Cross Section
Medium (>0.1 m² and <1 m²)

Expand to show TLE details & history
Last TLE update: 1 day ago

TLE from 1 day ago
0 THOR ABLESTAR DEB
1 48824U 61015NC  26174.01007791  .00000042  00000-0  73911-4 0  9995
2 48824  67.0047 285.1551 0099352 277.7501  81.2314 14.02781531644034
Epoch: 2026-06-23T00:14Z
TLE epoch observation values (Epoch: 2026-06-23T00:14:30.731Z)
Latitude
-0°
Longitude
10.33927°
Altitude
875.984 km
Speed
7.42 km/s
True Right ascension
19h 00m 37s
True Declination
0° 00' 00"
Sunlit
Object was in full shadow at epoch
Visualization orbit readout
Latitude
Unknown
Longitude
Unknown
Altitude
Unknown
Speed
Unknown
Apparent Right ascension
Unknown
Apparent Declination
Unknown
Sunlit
N/A
Visualization observer readout
Local Sidereal Time
16:01:29
Azimuth
Unknown
Elevation
Unknown
Doppler factor
Unknown
Orbital elements
Apogee altitude
954.676 km
Perigee altitude
810.403 km
Semi-major axis
7,260.677 km
Eccentricity
0.00994
Inclination
67.0047°
RAAN
285.1551°
Arg. of periapsis
277.7501°
True anomaly
82.35864°
Mean anomaly
81.2314°
Eccentric anomaly
81.79482°
Mean motion
3.50814 °/min
Orbital period
102.62 mins
BSTAR
0.000073911

Documentation

Showing up to 5 results
|